Location: Unspecified
(0.0000°N, 0.0000°E)
Time: 14:19:16
(UTC+00:00)

A-11 Canister half - All Passes

Search period start: 02 February 2023 00:00
Search period end: 12 February 2023 00:00
Orbit: 1514 x 1686 km, 47.2° (Epoch: 01 February)

Date Brightness Start Highest point End Pass type
(mag) Time Alt. Az. Time Alt. Az. Time Alt. Az.
02 Feb - 06:25:41 10° S 06:33:20 24° SE 06:40:52 10° E daylight
02 Feb - 08:28:18 10° SW 08:38:26 75° NW 08:48:18 10° NE daylight
02 Feb - 10:39:11 10° WNW 10:43:42 14° NW 10:48:10 10° NNW daylight
02 Feb - 19:15:14 10° NNW 19:24:01 48° NE 19:32:59 10° ESE visible
02 Feb - 21:20:32 10° WNW 21:28:43 35° SW 21:37:12 10° SSE visible
03 Feb - 06:03:05 10° S 06:10:19 22° SE 06:17:26 10° E daylight
03 Feb - 08:05:18 10° SW 08:15:29 81° NW 08:25:23 10° NE daylight
03 Feb - 10:15:20 10° W 10:20:40 16° NW 10:25:56 10° NNW daylight
03 Feb - 18:52:28 10° NNW 19:01:06 44° NE 19:09:52 10° ESE visible
03 Feb - 20:57:24 10° WNW 21:05:47 38° SW 21:14:25 10° SSE visible
04 Feb - 05:40:30 10° S 05:47:17 20° SE 05:53:59 10° E visible
04 Feb - 07:42:18 10° SW 07:52:32 87° NW 08:02:28 10° NE daylight
04 Feb - 09:51:37 10° W 09:57:38 17° NW 10:03:35 10° N daylight
04 Feb - 18:29:42 10° NNW 18:38:10 40° NE 18:46:44 10° ESE visible
04 Feb - 20:34:17 10° WNW 20:42:50 42° SW 20:51:38 10° SSE visible
05 Feb - 05:18:00 10° S 05:24:15 18° SE 05:30:26 10° E visible
05 Feb - 07:19:19 10° SW 07:29:33 87° SE 07:39:32 10° NE daylight
05 Feb - 09:28:01 10° W 09:34:37 19° NW 09:41:08 10° N daylight
05 Feb - 18:06:58 10° NNW 18:15:14 37° NE 18:23:35 10° ESE daylight
05 Feb - 20:11:12 10° WNW 20:19:53 46° SW 20:28:50 10° SSE visible
06 Feb - 04:55:34 10° S 05:01:12 16° SE 05:06:47 10° E visible
06 Feb - 06:56:23 10° SW 07:06:36 81° SE 07:16:35 10° NE daylight
06 Feb - 09:04:30 10° W 09:11:36 22° NW 09:18:38 10° N daylight
06 Feb - 17:44:16 10° NNW 17:52:18 33° NE 18:00:23 10° ESE daylight
06 Feb - 19:48:08 10° WNW 19:56:57 50° SW 20:06:01 10° SSE visible
07 Feb - 04:33:15 10° SSE 04:38:09 14° SE 04:43:00 10° ESE visible
07 Feb - 06:33:26 10° SSW 06:43:37 75° SE 06:53:36 10° NE daylight
07 Feb - 08:41:03 10° W 08:48:37 24° NW 08:56:03 10° N daylight
07 Feb - 17:21:34 10° N 17:29:22 30° NE 17:37:11 10° ESE daylight
07 Feb - 19:25:06 10° NW 19:34:01 54° SW 19:43:11 10° SSE visible
08 Feb - 04:11:06 10° SSE 04:15:04 13° SE 04:19:01 10° ESE visible
08 Feb - 06:10:31 10° SSW 06:20:39 69° SE 06:30:36 10° NE daylight
08 Feb - 08:17:40 10° W 08:25:36 26° NW 08:33:26 10° N daylight
08 Feb - 16:58:54 10° N 17:06:24 28° NE 17:13:56 10° ESE daylight
08 Feb - 19:02:05 10° NW 19:11:06 59° SW 19:20:20 10° SSE visible
09 Feb - 03:49:19 10° SSE 03:51:59 11° SE 03:54:39 10° ESE visible
09 Feb - 05:47:37 10° SSW 05:57:41 64° SE 06:07:35 10° NE visible
09 Feb - 07:54:19 10° WSW 08:02:37 29° NW 08:10:47 10° N daylight
09 Feb - 16:36:16 10° N 16:43:27 25° NE 16:50:38 10° E daylight
09 Feb - 18:39:05 10° NW 18:48:11 65° SW 18:57:28 10° SSE visible
09 Feb - 20:52:17 10° SW 20:53:39 10° SW 20:55:01 10° SW visible
10 Feb - 05:24:44 10° SSW 05:34:43 59° SE 05:44:32 10° NE visible
10 Feb - 07:31:01 10° WSW 07:39:37 32° NW 07:48:07 10° N daylight
10 Feb - 16:13:40 10° N 16:20:30 23° NE 16:27:18 10° E daylight
10 Feb - 18:16:07 10° NW 18:25:15 71° SW 18:34:35 10° SSE daylight
10 Feb - 20:27:33 10° WSW 20:30:36 12° SW 20:33:41 10° SSW visible
11 Feb - 05:01:53 10° SSW 05:11:44 54° SE 05:21:28 10° NE visible
11 Feb - 07:07:45 10° WSW 07:16:38 35° NW 07:25:23 10° NNE daylight
11 Feb - 15:51:06 10° N 15:57:31 21° NE 16:03:54 10° E daylight
11 Feb - 17:53:08 10° NW 18:02:20 77° SW 18:11:42 10° SE daylight
11 Feb - 20:03:32 10° WSW 20:07:34 13° SW 20:11:40 10° SSW visible
